NORTHEAST SUFFOLK  -  Winter Weather Advisory Winter Weather Advisory     Winter Weather Advisory Winter Weather Advisory        NORTHERN NASSAU  -  Winter Weather Advisory Winter Weather Advisory        NORTHWEST SUFFOLK  -  Winter Weather Advisory Winter Weather Advisory     Winter Weather Advisory Winter Weather Advisory        SOUTHEAST SUFFOLK  -  Winter Weather Advisory Winter Weather Advisory     Winter Weather Advisory Winter Weather Advisory        SOUTHERN NASSAU  -  Winter Weather Advisory Winter Weather Advisory        SOUTHWEST SUFFOLK  -  Winter Weather Advisory Winter Weather Advisory     Winter Weather Advisory Winter Weather Advisory      

Active alerts

Northern Nassau
  Details for Northern Nassau Winter Weather Advisory
Southern Nassau
  Details for Southern Nassau Winter Weather Advisory
Northwest Suffolk
  Details for Northwest Suffolk Winter Weather Advisory  +1 additional alert
Southwest Suffolk
  Details for Southwest Suffolk Winter Weather Advisory  +1 additional alert
Northeast Suffolk
  Details for Northeast Suffolk Winter Weather Advisory  +1 additional alert
Southeast Suffolk
  Details for Southeast Suffolk Winter Weather Advisory  +1 additional alert


WXM80 ListenWXM80 Stop

You find our weather info also at:

UK Metoffice

WeatherCloud

Weather Underground

Northeastern Weather Network

AWEKAS

Citizen Weather Observer Program (CWOP)

HAMweather, WeatherForYou, PWS Weather


Weather Underground History page Text

Daily Summary for October 3, 2017 Units:  Metric    English   Both
« Previous Day
Next Day »
Daily Weekly Monthly Yearly Custom
  High: Low: Average:
Temperature: 23.9 °C 9.6 °C 14.6 °C
Dew Point: 15.2 °C 8 °C 10.8 °C
Humidity: 98 % 50 % 80 %
Wind Speed: 7.7 km/h 0 km/h 0.8 km/h
Wind Gust: 14.8 km/h - -
Wind:- - ESE
Pressure: 1033.7 hPa 1028.7 hPa -
Precipitation: 0 mm    
Historical Graphs
 
 
Tabular Data for October 3, 2017
Time Temperature Dew Point Pressure Wind Wind Speed Wind Gust Humidity Rainfall Rate (Hourly)
00:00 12.3 °C 10 °C 1028.7 hPa Calm     86 % 0 mm
00:06 12.2 °C 9.9 °C 1028.7 hPa Calm     86 % 0 mm
00:11 12.2 °C 9.9 °C 1028.7 hPa Calm     86 % 0 mm
00:16 12.1 °C 9.8 °C 1028.7 hPa Calm     86 % 0 mm
00:21 12 °C 9.7 °C 1028.7 hPa Calm     86 % 0 mm
00:26 11.9 °C 9.7 °C 1028.7 hPa Calm     86 % 0 mm
00:31 11.9 °C 9.6 °C 1028.7 hPa Calm     86 % 0 mm
00:36 11.8 °C 9.6 °C 1029 hPa Calm     86 % 0 mm
00:41 11.8 °C 9.5 °C 1029 hPa Calm     86 % 0 mm
00:46 11.7 °C 9.4 °C 1029 hPa Calm     86 % 0 mm
00:51 11.6 °C 9.3 °C 1029 hPa Calm     86 % 0 mm
00:56 11.6 °C 9.4 °C 1029 hPa Calm     87 % 0 mm
01:01 11.4 °C 9.3 °C 1029 hPa Calm     87 % 0 mm
01:06 11.4 °C 9.3 °C 1029 hPa Calm     87 % 0 mm
01:11 11.3 °C 9.2 °C 1029 hPa Calm     87 % 0 mm
01:16 11.3 °C 9.2 °C 1029 hPa Calm     87 % 0 mm
01:21 11.2 °C 9.3 °C 1029 hPa Calm     88 % 0 mm
01:24 11.2 °C 9.3 °C 1028.7 hPa Calm   1.9 km/h 88 % 0 mm
01:29 11.1 °C 9.2 °C 1028.7 hPa Calm     88 % 0 mm
01:34 11 °C 9.3 °C 1028.7 hPa Calm     89 % 0 mm
01:39 10.9 °C 9.2 °C 1029 hPa Calm     89 % 0 mm
01:44 10.9 °C 9.2 °C 1029 hPa Calm     89 % 0 mm
01:49 10.8 °C 9.1 °C 1029 hPa Calm     89 % 0 mm
01:54 10.8 °C 9.3 °C 1029 hPa Calm     90 % 0 mm
01:59 10.8 °C 9.2 °C 1029 hPa Calm     90 % 0 mm
02:04 10.7 °C 9.2 °C 1029 hPa Calm     90 % 0 mm
02:09 10.7 °C 9.2 °C 1029 hPa Calm     90 % 0 mm
02:14 10.7 °C 9.3 °C 1029 hPa Calm     91 % 0 mm
02:20 10.6 °C 9.2 °C 1029 hPa Calm     91 % 0 mm
02:25 10.6 °C 9.2 °C 1029.3 hPa Calm     91 % 0 mm
02:35 10.5 °C 9.1 °C 1029.3 hPa Calm     91 % 0 mm
02:40 10.4 °C 9.1 °C 1029.3 hPa Calm     91 % 0 mm
02:45 10.4 °C 9.1 °C 1029.3 hPa Calm     91 % 0 mm
02:50 10.4 °C 9 °C 1029.3 hPa Calm     91 % 0 mm
02:55 10.3 °C 8.9 °C 1029.3 hPa Calm     91 % 0 mm
03:00 10.3 °C 8.9 °C 1029.3 hPa Calm     91 % 0 mm
03:05 10.3 °C 8.9 °C 1029.3 hPa SE 0.2 km/h 1.9 km/h 91 % 0 mm
03:10 10.2 °C 8.8 °C 1029.3 hPa Calm     91 % 0 mm
03:15 10.2 °C 8.8 °C 1029.3 hPa Calm     91 % 0 mm
03:20 10.2 °C 8.8 °C 1029.3 hPa Calm     91 % 0 mm
03:25 10.1 °C 8.7 °C 1029.7 hPa Calm     91 % 0 mm
03:30 10.1 °C 8.8 °C 1029.3 hPa Calm     92 % 0 mm
03:36 10.1 °C 8.8 °C 1029.7 hPa Calm     92 % 0 mm
03:41 10 °C 8.8 °C 1029.7 hPa Calm     92 % 0 mm
03:46 10 °C 8.9 °C 1029.7 hPa Calm     93 % 0 mm
03:51 10 °C 8.9 °C 1029.7 hPa Calm     93 % 0 mm
03:56 9.9 °C 8.9 °C 1029.7 hPa Calm     93 % 0 mm
04:01 9.9 °C 8.9 °C 1029.7 hPa SE 0.5 km/h 1.9 km/h 93 % 0 mm
04:06 9.9 °C 8.9 °C 1029.7 hPa Calm   1.6 km/h 93 % 0 mm
04:11 9.9 °C 8.8 °C 1029.7 hPa Calm   1.6 km/h 93 % 0 mm
04:16 9.9 °C 8.8 °C 1029.7 hPa Calm     93 % 0 mm
04:21 9.9 °C 8.8 °C 1030 hPa Calm     93 % 0 mm
04:26 9.8 °C 8.8 °C 1029.7 hPa Calm   1.6 km/h 93 % 0 mm
04:31 9.8 °C 8.8 °C 1029.7 hPa Calm   1.6 km/h 93 % 0 mm
04:36 9.8 °C 8.8 °C 1029.7 hPa Calm   1.6 km/h 93 % 0 mm
04:41 9.8 °C 8.8 °C 1029.7 hPa Calm   1.6 km/h 93 % 0 mm
04:46 9.8 °C 8.8 °C 1029.7 hPa Calm     93 % 0 mm
04:51 9.8 °C 8.7 °C 1030 hPa Calm     93 % 0 mm
04:56 9.8 °C 8.7 °C 1030 hPa Calm     93 % 0 mm
05:01 9.7 °C 8.7 °C 1029.7 hPa Calm     93 % 0 mm
05:06 9.7 °C 8.7 °C 1030 hPa Calm     93 % 0 mm
05:11 9.7 °C 8.6 °C 1030 hPa Calm     93 % 0 mm
05:16 9.7 °C 8.6 °C 1030 hPa Calm     93 % 0 mm
05:21 9.7 °C 8.6 °C 1030 hPa Calm     93 % 0 mm
05:26 9.6 °C 8.6 °C 1030 hPa Calm   1.9 km/h 93 % 0 mm
05:31 9.6 °C 8.6 °C 1030 hPa Calm   1.9 km/h 93 % 0 mm
05:36 9.6 °C 8.6 °C 1030.4 hPa Calm   1.9 km/h 93 % 0 mm
05:41 9.6 °C 8.6 °C 1030.4 hPa Calm     93 % 0 mm
05:46 9.6 °C 8.6 °C 1030.4 hPa Calm     93 % 0 mm
05:51 9.6 °C 8.7 °C 1030.4 hPa Calm     94 % 0 mm
05:56 9.6 °C 8.7 °C 1030.4 hPa Calm     94 % 0 mm
06:01 9.6 °C 8.7 °C 1030.4 hPa Calm     94 % 0 mm
06:05 9.6 °C 8.7 °C 1030.4 hPa Calm     94 % 0 mm
06:10 9.6 °C 8.7 °C 1030.4 hPa Calm     94 % 0 mm
06:16 9.6 °C 8.7 °C 1030.4 hPa Calm     94 % 0 mm
06:21 9.7 °C 8.7 °C 1030.7 hPa Calm     94 % 0 mm
06:26 9.7 °C 8.7 °C 1030.7 hPa Calm     94 % 0 mm
06:31 9.7 °C 8.9 °C 1030.7 hPa Calm     95 % 0 mm
06:36 9.7 °C 8.9 °C 1030.7 hPa Calm     95 % 0 mm
06:41 9.8 °C 9 °C 1031 hPa Calm     95 % 0 mm
06:46 9.8 °C 9 °C 1031 hPa Calm     95 % 0 mm
06:51 9.8 °C 9.1 °C 1031 hPa Calm     95 % 0 mm
06:56 9.8 °C 9.1 °C 1031 hPa Calm     95 % 0 mm
07:01 9.8 °C 9.1 °C 1031 hPa Calm     95 % 0 mm
07:06 9.8 °C 9.1 °C 1031.4 hPa Calm     95 % 0 mm
07:11 9.8 °C 9.1 °C 1031.4 hPa Calm     95 % 0 mm
07:16 9.9 °C 9.1 °C 1031.7 hPa Calm     95 % 0 mm
07:21 9.9 °C 9.2 °C 1031.7 hPa Calm     95 % 0 mm
07:26 10 °C 9.2 °C 1031.7 hPa Calm     95 % 0 mm
07:31 10 °C 9.2 °C 1031.7 hPa Calm     95 % 0 mm
07:36 10.1 °C 9.5 °C 1031.7 hPa Calm     96 % 0 mm
07:41 10.2 °C 9.6 °C 1031.7 hPa Calm     96 % 0 mm
07:46 10.3 °C 9.7 °C 1031.7 hPa Calm     96 % 0 mm
07:51 10.4 °C 9.8 °C 1032.1 hPa Calm   1.9 km/h 96 % 0 mm
07:56 10.6 °C 9.9 °C 1032.1 hPa SE 0.2 km/h 1.9 km/h 96 % 0 mm
08:01 10.7 °C 10.1 °C 1032.1 hPa Calm     96 % 0 mm
08:06 10.9 °C 10.5 °C 1032.1 hPa SE 0.3 km/h 3.7 km/h 97 % 0 mm
08:11 11.2 °C 10.8 °C 1032.1 hPa SE 0.3 km/h 1.9 km/h 97 % 0 mm
08:16 11.6 °C 11.2 °C 1032.1 hPa Calm     97 % 0 mm
08:21 11.9 °C 11.5 °C 1032.1 hPa Calm     97 % 0 mm
08:26 12.3 °C 11.8 °C 1032.1 hPa Calm   1.9 km/h 97 % 0 mm
08:31 12.6 °C 12.1 °C 1032.1 hPa Calm     97 % 0 mm
08:36 12.8 °C 12.4 °C 1032.1 hPa Calm     97 % 0 mm
08:41 13.1 °C 12.6 °C 1032.4 hPa SE 0.2 km/h 1.9 km/h 97 % 0 mm
08:46 13.3 °C 12.9 °C 1032.1 hPa Calm   1.9 km/h 98 % 0 mm
08:51 13.4 °C 13 °C 1032.4 hPa SE 1.9 km/h 1.9 km/h 97 % 0 mm
08:56 13.6 °C 13.3 °C 1032.4 hPa SE 0.3 km/h 3.7 km/h 98 % 0 mm
09:01 13.8 °C 13.3 °C 1032.4 hPa Calm   1.9 km/h 97 % 0 mm
09:06 13.9 °C 13.6 °C 1032.4 hPa SE 0.5 km/h   98 % 0 mm
09:11 14.1 °C 13.6 °C 1032.4 hPa SE 0.5 km/h 3.7 km/h 97 % 0 mm
09:16 14.2 °C 13.7 °C 1032.4 hPa SE 1 km/h 3.7 km/h 97 % 0 mm
09:22 14.3 °C 13.9 °C 1032.4 hPa SE 0.3 km/h 1.9 km/h 98 % 0 mm
09:27 14.4 °C 13.9 °C 1032.4 hPa ESE 0.5 km/h 1.9 km/h 97 % 0 mm
09:32 14.6 °C 14.1 °C 1032.4 hPa ESE 0.2 km/h 1.9 km/h 97 % 0 mm
09:37 14.7 °C 14.3 °C 1032.7 hPa ESE 0.3 km/h 1.9 km/h 97 % 0 mm
09:42 14.9 °C 14.4 °C 1032.4 hPa ESE 0.5 km/h 1.9 km/h 97 % 0 mm
09:47 15.1 °C 14.4 °C 1032.7 hPa SE 2.1 km/h 5.6 km/h 96 % 0 mm
09:52 15.2 °C 14.2 °C 1032.7 hPa Calm   1.9 km/h 94 % 0 mm
09:57 15.4 °C 14.2 °C 1032.7 hPa SE 1 km/h 5.6 km/h 92 % 0 mm
10:07 16.1 °C 13.9 °C 1032.7 hPa SE 0.3 km/h 5.6 km/h 87 % 0 mm
10:12 16.3 °C 14 °C 1032.7 hPa SE 0.8 km/h 5.6 km/h 86 % 0 mm
10:17 16.6 °C 14.2 °C 1032.7 hPa Calm   1.9 km/h 86 % 0 mm
10:22 16.8 °C 14.3 °C 1032.7 hPa Calm   1.6 km/h 85 % 0 mm
10:27 17.1 °C 13.8 °C 1032.7 hPa SSE 3.9 km/h 14.5 km/h 81 % 0 mm
10:32 17.4 °C 13.5 °C 1033.1 hPa SSE 1.1 km/h 6.4 km/h 78 % 0 mm
10:37 17.6 °C 13.9 °C 1032.7 hPa SE 1.1 km/h 5.6 km/h 79 % 0 mm
10:42 17.8 °C 13.3 °C 1032.7 hPa SE 1.9 km/h 9.3 km/h 75 % 0 mm
10:47 17.9 °C 13.2 °C 1033.1 hPa SE 0.6 km/h 3.2 km/h 74 % 0 mm
10:52 18 °C 13.5 °C 1033.1 hPa ENE 0.2 km/h 1.9 km/h 75 % 0 mm
10:57 18.2 °C 13.7 °C 1033.1 hPa NE 0.8 km/h 3.7 km/h 75 % 0 mm
11:02 18.6 °C 13.8 °C 1032.7 hPa East 1 km/h 3.7 km/h 74 % 0 mm
11:07 18.7 °C 13.6 °C 1033.1 hPa Calm   1.9 km/h 72 % 0 mm
11:12 19.1 °C 14.6 °C 1032.7 hPa SE 1 km/h 1.9 km/h 75 % 0 mm
11:17 19.7 °C 14.7 °C 1032.7 hPa Calm   1.9 km/h 73 % 0 mm
11:22 20 °C 14.6 °C 1032.7 hPa Calm     71 % 0 mm
11:27 20.5 °C 15.1 °C 1032.7 hPa NE 1.8 km/h 3.7 km/h 71 % 0 mm
11:32 21.1 °C 15 °C 1032.7 hPa ESE 1 km/h 3.7 km/h 68 % 0 mm
11:38 21.7 °C 15.1 °C 1032.7 hPa SE 0.3 km/h 1.9 km/h 66 % 0 mm
11:43 22.4 °C 15 °C 1032.7 hPa SE 0.6 km/h 3.7 km/h 63 % 0 mm
11:48 22.8 °C 15.1 °C 1032.4 hPa Calm   1.9 km/h 62 % 0 mm
11:53 23.3 °C 14.8 °C 1032.7 hPa East 1.9 km/h 5.6 km/h 59 % 0 mm
11:58 23.3 °C 14.1 °C 1032.4 hPa NE 1.6 km/h 9.3 km/h 56 % 0 mm
12:03 22.9 °C 13.4 °C 1032.4 hPa SE 3.7 km/h 5.6 km/h 55 % 0 mm
12:08 22.8 °C 14.3 °C 1032.4 hPa NE 0.2 km/h 3.7 km/h 59 % 0 mm
12:13 23.1 °C 14.9 °C 1032.4 hPa SE 1.3 km/h 5.6 km/h 60 % 0 mm
12:18 23.4 °C 15.2 °C 1032.4 hPa Calm   3.7 km/h 60 % 0 mm
12:23 23.7 °C 14.9 °C 1032.4 hPa NE 1.4 km/h 3.7 km/h 58 % 0 mm
12:28 23.9 °C 14.6 °C 1032.4 hPa NNE 2.4 km/h 3.7 km/h 56 % 0 mm
12:33 23.7 °C 14.1 °C 1032.4 hPa Calm   1.9 km/h 55 % 0 mm
12:38 23.3 °C 14.1 °C 1032.1 hPa NE 5.8 km/h 11.1 km/h 56 % 0 mm
12:43 23.2 °C 13.1 °C 1032.1 hPa SSE 1.9 km/h 11.1 km/h 53 % 0 mm
12:48 23.3 °C 14.3 °C 1032.1 hPa East 1.3 km/h 3.7 km/h 57 % 0 mm
12:53 23.5 °C 14.5 °C 1032.1 hPa Calm   1.9 km/h 57 % 0 mm
12:58 23.8 °C 15 °C 1032.4 hPa SE 0.5 km/h 5.6 km/h 58 % 0 mm
13:03 23.8 °C 13.1 °C 1032.1 hPa Calm   5.6 km/h 51 % 0 mm
13:08 23.7 °C 12.7 °C 1032.1 hPa SSE 1.4 km/h 5.6 km/h 50 % 0 mm
13:13 23.6 °C 13.8 °C 1032.4 hPa SSE 1.4 km/h 5.6 km/h 54 % 0 mm
13:19 23.6 °C 13.1 °C 1032.1 hPa SE 0.2 km/h 5.6 km/h 52 % 0 mm
13:24 23.4 °C 14.7 °C 1032.1 hPa East 0.5 km/h 3.7 km/h 58 % 0 mm
13:29 23.3 °C 14.8 °C 1032.1 hPa NE 4.5 km/h 4.5 km/h 59 % 0 mm
13:34 22.8 °C 14.1 °C 1032.1 hPa ENE 3.2 km/h 5.6 km/h 58 % 0 mm
13:39 22.3 °C 13.9 °C 1031.7 hPa NE 2.7 km/h 11.1 km/h 59 % 0 mm
13:44 21.8 °C 13.9 °C 1031.7 hPa ENE 2.4 km/h 5.6 km/h 61 % 0 mm
13:49 21.3 °C 13.9 °C 1031.7 hPa ENE 4.3 km/h 6.4 km/h 63 % 0 mm
13:54 20.9 °C 14.3 °C 1031.7 hPa ENE 1.8 km/h 5.6 km/h 66 % 0 mm
13:59 20.8 °C 14.2 °C 1031.7 hPa ENE 1.4 km/h 5.6 km/h 66 % 0 mm
14:04 20.6 °C 14.3 °C 1031.4 hPa ENE 1.4 km/h 3.7 km/h 67 % 0 mm
14:09 20.4 °C 14.3 °C 1031.4 hPa ENE 2.3 km/h 3.7 km/h 68 % 0 mm
14:14 20.3 °C 13.9 °C 1031.4 hPa NE 2.3 km/h 5.6 km/h 67 % 0 mm
14:19 20.2 °C 14.1 °C 1031.4 hPa ENE 4 km/h 8 km/h 68 % 0 mm
14:24 20.1 °C 14.4 °C 1031.4 hPa East 1.8 km/h 3.7 km/h 70 % 0 mm
14:29 19.9 °C 14.1 °C 1031.4 hPa NE 1.3 km/h 3.7 km/h 69 % 0 mm
14:34 19.8 °C 14.2 °C 1031.4 hPa ENE 1 km/h 3.7 km/h 70 % 0 mm
14:39 19.7 °C 14.3 °C 1031.4 hPa ENE 1.1 km/h 3.7 km/h 71 % 0 mm
14:41 19.7 °C 14.3 °C 1031 hPa ENE 2.3 km/h 3.7 km/h 71 % 0 mm
14:46 19.9 °C 14.5 °C 1031 hPa ENE 1.3 km/h 3.7 km/h 71 % 0 mm
14:51 20.2 °C 14.3 °C 1031 hPa ENE 2.6 km/h 5.6 km/h 69 % 0 mm
14:56 20.4 °C 14.6 °C 1031 hPa ENE 2.6 km/h 5.6 km/h 69 % 0 mm
15:02 20.4 °C 14.3 °C 1031 hPa ENE 3.5 km/h 5.6 km/h 68 % 0 mm
15:07 20.3 °C 14.2 °C 1031 hPa ENE 3.4 km/h 5.6 km/h 68 % 0 mm
15:12 20.3 °C 14.6 °C 1030.7 hPa ENE 0.5 km/h 5.6 km/h 70 % 0 mm
15:17 20.3 °C 14.4 °C 1030.7 hPa ENE 1.8 km/h 3.7 km/h 69 % 0 mm
15:22 20.1 °C 14.2 °C 1030.7 hPa ENE 2.3 km/h 3.7 km/h 69 % 0 mm
15:27 19.9 °C 14.3 °C 1030.7 hPa ENE 0.3 km/h 1.9 km/h 70 % 0 mm
15:32 19.8 °C 14.2 °C 1030.7 hPa NE 2.6 km/h 4.8 km/h 70 % 0 mm
15:37 19.7 °C 14.1 °C 1030.7 hPa NE 1.9 km/h 5.6 km/h 70 % 0 mm
15:42 19.6 °C 14.2 °C 1030.4 hPa ENE 5.1 km/h 7.4 km/h 71 % 0 mm
15:47 19.6 °C 13.9 °C 1030.4 hPa ENE 5.5 km/h 7.4 km/h 70 % 0 mm
15:52 19.6 °C 12.8 °C 1030.7 hPa SSE 4.2 km/h 11.1 km/h 65 % 0 mm
15:57 19.6 °C 11.1 °C 1030.7 hPa SE 7.7 km/h 14.8 km/h 58 % 0 mm
16:02 19.6 °C 11.1 °C 1030.7 hPa SE 5 km/h 7.4 km/h 58 % 0 mm
16:07 19.5 °C 10.8 °C 1030.4 hPa SE 3.9 km/h 11.1 km/h 57 % 0 mm
16:12 19.4 °C 10.9 °C 1030.4 hPa SE 3.4 km/h 9.3 km/h 58 % 0 mm
16:17 19.4 °C 10.7 °C 1030.4 hPa SE 5.6 km/h 11.3 km/h 57 % 0 mm
16:22 19.3 °C 10.8 °C 1030.4 hPa ESE 2.9 km/h 5.6 km/h 58 % 0 mm
16:27 19.3 °C 10.6 °C 1030.4 hPa ESE 4 km/h 4.8 km/h 57 % 0 mm
16:32 19.2 °C 10.4 °C 1030.4 hPa SE 7.6 km/h 11.3 km/h 57 % 0 mm
16:37 19.1 °C 10.6 °C 1030.4 hPa SE 2.1 km/h 6.4 km/h 58 % 0 mm
16:42 19 °C 10 °C 1030.4 hPa SE 1.6 km/h 5.6 km/h 56 % 0 mm
16:48 18.9 °C 9.9 °C 1030.4 hPa SE 2.9 km/h 9.3 km/h 56 % 0 mm
16:53 18.8 °C 10.1 °C 1030.4 hPa SSE 5.8 km/h 11.3 km/h 57 % 0 mm
16:58 18.7 °C 10 °C 1030.4 hPa SE 1.6 km/h 5.6 km/h 57 % 0 mm
17:03 18.6 °C 9.9 °C 1030.4 hPa SSE 3.2 km/h 11.1 km/h 57 % 0 mm
17:08 18.5 °C 10.1 °C 1030.4 hPa SE 3.2 km/h 11.1 km/h 58 % 0 mm
17:13 18.4 °C 9.5 °C 1030.4 hPa SE 4.3 km/h 13 km/h 56 % 0 mm
17:16 18.3 °C 9.1 °C 1030.4 hPa SE 5 km/h 9.3 km/h 55 % 0 mm
17:21 18.2 °C 9.3 °C 1030.4 hPa SE 2.9 km/h 8 km/h 56 % 0 mm
17:26 18.1 °C 9.2 °C 1030.4 hPa SE 3.7 km/h 13 km/h 56 % 0 mm
17:31 18 °C 9.1 °C 1030.4 hPa ESE 5.3 km/h 11.1 km/h 56 % 0 mm
17:36 17.9 °C 8.8 °C 1030.4 hPa SSE 6 km/h 9.3 km/h 55 % 0 mm
17:41 17.8 °C 8.7 °C 1030.4 hPa SE 1.9 km/h 5.6 km/h 55 % 0 mm
17:46 17.7 °C 9.1 °C 1030.4 hPa SE 5 km/h 7.4 km/h 57 % 0 mm
17:51 17.7 °C 9.3 °C 1030.4 hPa South 3.4 km/h 5.6 km/h 58 % 0 mm
17:57 17.6 °C 9.4 °C 1030.7 hPa SE 3.9 km/h 7.4 km/h 59 % 0 mm
18:02 17.5 °C 9.9 °C 1030.7 hPa SE 2.4 km/h 6.4 km/h 61 % 0 mm
18:07 17.4 °C 9.8 °C 1030.7 hPa Calm   1.9 km/h 61 % 0 mm
18:12 17.3 °C 10.2 °C 1030.7 hPa SE 1.1 km/h 3.2 km/h 63 % 0 mm
18:17 17.2 °C 10.1 °C 1030.7 hPa SE 0.5 km/h 3.7 km/h 63 % 0 mm
18:22 17.1 °C 10.2 °C 1030.7 hPa SE 1.1 km/h 3.2 km/h 64 % 0 mm
18:27 16.9 °C 10.3 °C 1030.7 hPa Calm     65 % 0 mm
18:32 16.8 °C 10.4 °C 1030.7 hPa Calm     66 % 0 mm
18:37 16.6 °C 10.4 °C 1030.7 hPa Calm     67 % 0 mm
18:42 16.4 °C 10.3 °C 1031 hPa Calm     67 % 0 mm
18:47 16.3 °C 10.3 °C 1031 hPa Calm     68 % 0 mm
18:52 16.1 °C 10.2 °C 1030.7 hPa Calm     68 % 0 mm
18:57 15.8 °C 10.4 °C 1030.7 hPa Calm     70 % 0 mm
19:02 15.6 °C 10.1 °C 1030.7 hPa Calm     70 % 0 mm
19:07 15.3 °C 10.1 °C 1030.7 hPa Calm     71 % 0 mm
19:12 15.2 °C 10.2 °C 1031 hPa SE 0.6 km/h 1.6 km/h 72 % 0 mm
19:17 14.9 °C 10.2 °C 1031 hPa SE 1.1 km/h 1.9 km/h 73 % 0 mm
19:22 14.8 °C 10.1 °C 1031 hPa SE 0.3 km/h 1.9 km/h 73 % 0 mm
19:27 14.7 °C 10.1 °C 1030.7 hPa Calm     74 % 0 mm
19:32 14.6 °C 10 °C 1030.7 hPa Calm   1.9 km/h 74 % 0 mm
19:37 14.4 °C 10.1 °C 1030.7 hPa Calm     75 % 0 mm
19:42 14.3 °C 9.9 °C 1030.7 hPa Calm     75 % 0 mm
19:47 14.2 °C 10.1 °C 1030.7 hPa SE 0.5 km/h 3.7 km/h 76 % 0 mm
19:52 14.1 °C 9.9 °C 1030.7 hPa SE 0.2 km/h 1.9 km/h 76 % 0 mm
20:02 13.9 °C 9.9 °C 1030.4 hPa SE 0.5 km/h 3.2 km/h 77 % 0 mm
20:08 13.8 °C 9.9 °C 1030.7 hPa Calm     77 % 0 mm
20:13 13.8 °C 9.8 °C 1030.4 hPa Calm     77 % 0 mm
20:18 13.7 °C 9.9 °C 1030.4 hPa Calm     78 % 0 mm
20:23 13.6 °C 10.1 °C 1030.4 hPa Calm     79 % 0 mm
20:28 13.5 °C 9.9 °C 1030.4 hPa Calm     79 % 0 mm
20:33 13.3 °C 9.8 °C 1030.4 hPa Calm     79 % 0 mm
20:38 13.2 °C 9.7 °C 1030.4 hPa Calm     79 % 0 mm
20:43 13.1 °C 9.7 °C 1030.4 hPa Calm     80 % 0 mm
20:48 12.9 °C 9.6 °C 1030.4 hPa Calm     80 % 0 mm
20:53 12.8 °C 9.4 °C 1030.4 hPa Calm     80 % 0 mm
20:58 12.7 °C 9.5 °C 1030 hPa Calm     81 % 0 mm
21:03 12.5 °C 9.3 °C 1030.4 hPa Calm     81 % 0 mm
21:08 12.4 °C 9.4 °C 1030 hPa Calm     82 % 0 mm
21:14 12.2 °C 9.2 °C 1030 hPa Calm     82 % 0 mm
21:19 12.1 °C 9.1 °C 1030 hPa Calm     82 % 0 mm
21:24 12 °C 9.2 °C 1030 hPa Calm     83 % 0 mm
21:29 11.8 °C 9.1 °C 1030 hPa Calm     83 % 0 mm
21:34 11.7 °C 9.1 °C 1030 hPa Calm     84 % 0 mm
21:44 11.5 °C 8.9 °C 1030.4 hPa Calm     84 % 0 mm
21:49 11.4 °C 8.8 °C 1030 hPa Calm     84 % 0 mm
21:54 11.3 °C 8.9 °C 1030 hPa Calm     85 % 0 mm
21:59 11.2 °C 8.6 °C 1030 hPa Calm     84 % 0 mm
22:04 11.1 °C 8.7 °C 1030 hPa Calm     85 % 0 mm
22:09 11.1 °C 8.6 °C 1030 hPa Calm     85 % 0 mm
22:14 10.9 °C 8.7 °C 1033.7 hPa Calm     86 % 0 mm
22:19 10.9 °C 8.6 °C 1033.7 hPa Calm     86 % 0 mm
22:24 10.8 °C 8.6 °C 1033.7 hPa Calm     86 % 0 mm
22:29 10.7 °C 8.5 °C 1033.7 hPa Calm     86 % 0 mm
22:34 10.6 °C 8.4 °C 1033.7 hPa Calm     86 % 0 mm
22:39 10.6 °C 8.3 °C 1033.7 hPa Calm     86 % 0 mm
22:44 10.4 °C 8.2 °C 1033.7 hPa Calm     86 % 0 mm
22:46 10.4 °C 8.2 °C 1033.7 hPa Calm     86 % 0 mm
22:51 10.4 °C 8.3 °C 1033.7 hPa Calm     87 % 0 mm
22:56 10.3 °C 8.2 °C 1033.7 hPa Calm     87 % 0 mm
23:01 10.2 °C 8.2 °C 1033.4 hPa Calm     87 % 0 mm
23:06 10.2 °C 8.1 °C 1033.4 hPa Calm     87 % 0 mm
23:11 10.1 °C 8.1 °C 1033.4 hPa Calm     87 % 0 mm
23:17 10.1 °C 8 °C 1033.4 hPa Calm     87 % 0 mm
23:22 10 °C 8.1 °C 1029.3 hPa Calm     88 % 0 mm
23:27 10 °C 8.1 °C 1033.4 hPa Calm     88 % 0 mm
23:32 9.9 °C 8.1 °C 1033.4 hPa Calm     88 % 0 mm
23:37 9.9 °C 8.2 °C 1033.4 hPa Calm     89 % 0 mm
23:42 9.9 °C 8.4 °C 1033.4 hPa Calm     90 % 0 mm
23:47 9.9 °C 8.4 °C 1033.4 hPa Calm     90 % 0 mm
23:52 9.9 °C 8.6 °C 1033.4 hPa Calm     91 % 0 mm
23:57 10.1 °C 8.8 °C 1033.4 hPa Calm     92 % 0 mm
Crab Meadow Weather
Compliments of Weather Underground - 3 mb

Script developed by  Jim McMurry - jmcmurry@mwt.net Adapted for the template by  Wim van der Kuil - Leuven-Template.eu

Recycling: Americans use 85,000,000 tons of paper a year; about 680 pounds per person.